Location: Miles
(41.4492°N, 81.6087°W)
Time: 07:02:16
(UTC+00:00)

Vanguard 1 Rocket - Pass Details

Date: 18 September 2024
Orbit: 650 x 4218 km, 34.3° (Epoch: 05 October)

Event Time Altitude Azimuth Distance (km) Brightness Sun altitude
Rises 16:23:02 0° 283° (WNW) 8,151 12.0 48.0°
Reaches altitude 10° 16:30:55 10° 270° (W) 7,365 12.0 48.5°
Maximum altitude 16:46:38 21° 232° (SW) 6,361 12.2 49.3°
Drops below altitude 10° 17:00:53 10° 193° (SSW) 6,503 12.6 49.8°
Sets 17:07:23 0° 178° (S) 6,970 12.6 49.9°
